Search your local weather  

 
Advertise Here

Hazardous Weather Conditions

No active alerts for SAN ANTONIO, TEXAS

Current Conditions: SAN ANTONIO, TEXAS

Fair


70.0 F

Last Updated on Jul 27 2021, 12:55 am CDT
Humidity: 94%
Wind Speed: N 0.0 mph
Barometer 30.04 in
Dewpoint: 68.0 F
Visibility: 10.00 mi
Precip: --
Heat Index: NA
Wind Chill: NA
Current conditions at:

San Antonio Boerne Stage Field, TX (K5C1)

Lat: 29.7239 Lon: -98.6946

Local Radar Image active severe weather and emergency alerts image image weather storm and storm spotter reports image weather observation monitoring service image
Local
Radar
Active
Alerts
Storm Reports Weather
Monitoring

5 Day Forecast for SAN ANTONIO, TEXAS (78201)

Tuesday

Partly Sunny

High 97 °F
Tuesday
Night
Partly Cloudy

Low 75 °F
Wednesday

Isolated T-storm

High 94 °F
Wednesday
Night
Mostly Clear

Low 74 °F
Thursday

Mostly Sunny

High 95 °F
Thursday
Night
Mostly Clear

Low 75 °F
Friday

Mostly Sunny

High 96 °F
Friday
Night
Mostly Clear

Low 76 °F
Saturday

Mostly Sunny

High 97 °F

Sign-up For Email & Text Message Weather Alert Notification Services


Advertise Here

Observation History for SAN ANTONIO, TEXAS


Time Wind
(mph)
Vis
(mi)
Weather Precip (in) Temperature (F) Relative
Humidity
Wind
Chill
(F)
Heat
Index
(F)
Pressure
Air Dwpt altimeter
(in)
sea level
(mb)
12:55 am CDT N 0.0 10.00 Fair -- 70.0 68.0 94% NA NA 30.04 M
11:55 pm CDT N 0.0 10.00 Fair -- 72.0 68.0 88% NA NA 30.04 M
11:35 pm CDT N 0.0 10.00 Fair -- 73.0 66.2 78% NA NA 30.04 M
10:55 pm CDT N 0.0 10.00 Fair -- 72.0 68.0 88% NA NA 30.03 M
9:55 pm CDT N 0.0 10.00 Fair -- 77.0 66.2 69% NA NA 30.00 M
8:55 pm CDT N 0.0 10.00 Fair -- 81.0 64.4 58% NA 83 29.98 M
7:55 pm CDT S 4.6 10.00 Fair -- 86.0 64.4 49% NA 87 29.96 M
6:55 pm CDT S 5.8 10.00 Fair -- 88.0 62.6 43% NA 89 29.96 M
5:55 pm CDT S 5.8 10.00 Fair -- 90.0 60.8 38% NA 90 29.97 M
5:35 pm CDT S 5.8 10.00 Fair -- 90.0 60.8 38% NA 90 29.98 M
4:55 pm CDT S 9.2 10.00 Fair -- 90.0 60.8 38% NA 90 29.99 M
4:35 pm CDT SE 4.6 10.00 Fair -- 91.0 60.8 36% NA 91 30.00 M
3:55 pm CDT S 6.9 10.00 Fair -- 90.0 60.8 38% NA 90 30.01 M
2:55 pm CDT SE 5.8 10.00 Fair -- 90.0 60.8 38% NA 90 30.02 M
1:55 pm CDT N 0.0 10.00 Fair -- 88.0 64.4 46% NA 90 30.03 M
12:55 pm CDT S 4.6 10.00 Fair -- 86.0 64.4 49% NA 87 30.04 M
11:55 am CDT S 6.9 10.00 Fair -- 84.0 64.4 51% NA 85 30.05 M
10:55 am CDT S 4.6 10.00 Fair -- 81.0 66.2 62% NA 83 30.05 M
8:15 am CDT SW 6.9 10.00 Fair -- 73.0 71.6 94% NA NA 30.02 M
7:55 am CDT SW 5.8 10.00 Partly Cloudy -- 73.0 73.4 100% NA NA 30.03 M
7:35 am CDT SW 6.9 10.00 Mostly Cloudy -- 73.0 73.4 100% NA NA 30.03 M
6:55 am CDT SW 5.8 10.00 Overcast -- 73.0 73.4 100% NA NA 30.02 M
5:55 am CDT SW 6.9 10.00 Overcast -- 73.0 73.4 100% NA NA 30.01 M
4:55 am CDT S 9.2 10.00 Overcast -- 73.0 73.4 100% NA NA 30.01 M

Regional Weather Observation

San Antonio, San Antonio International Airport, TX (KSAT)

A Few Clouds
81.0 F

Castroville Municipal Airport, TX (KCVB)

Fair
79.0 F

San Antonio - Kelly Field, TX (KSKF)

Fair
77.0 F

San Antonio, Stinson Municipal Airport, TX (KSSF)

Fair
79.0 F

Randolph Air Force Base, TX (KRND)

Fair
78.0 F

New Braunfels Regional Airport, TX (KBAZ)

Fair
76.0 F
Advertise Here

Advertise Here